Home > Weather > Winnipeg > Past weeks

Flag for Canada Past Weather in Winnipeg, Manitoba, Canada — Yesterday and Last 2 Weeks

Now
61 °F

Cool.


Feels Like: 61 °F
Forecast: 58 / 81 °F
Wind: No wind

Location: Winnipeg The Forks Man

Current Time: Jul 30, 2016 at 6:17:09 AM

Latest Report: Jul 30, 2016 at 5:00 AM


Visibility: N/A

Pressure: 29.93 "Hg

Humidity: 79%

Dew Point: 54 °F

Location of WinnipegLocation

Past Weather in Winnipeg — Graph

°F

Winnipeg Temperature Yesterday

Maximum temperature yesterday: 79 °F (at 5:00 PM)
Minimum temperature yesterday: 60 °F (at 6:00 AM)
Average temperature yesterday: 70 °F

High & Low Weather Summary for the Past Weeks

 TemperatureHumidityPressure
High89 °F (Jul 20, 6:00 PM)94% (Jul 17, 6:00 AM)30.17 "Hg (Jul 17, 6:00 AM)
Low53 °F (Jul 15, 5:00 AM)35% (Jul 15, 4:00 PM)29.62 "Hg (Jul 24, 12:00 AM)
Average71 °F65%29.95 "Hg
* Reported Jul 15 5:00 AM — Jul 30 5:00 AM, Winnipeg, Weather by CustomWeather, © 2016

Note: Actual official high and low records may vary slightly from our data, if they occured in-between our weather recording intervals... More about our weather records

Advertising

Winnipeg Weather History for the Previous 24 Hours

Scroll right to see more
 ConditionsComfort  
Time TempWeatherWind HumidityBarometerVisibility
5:00 AM
Sat, Jul 30
61 °FCool.No wind79%29.93 "HgN/A
4:00 AM62 °FCool.1 mph78%29.93 "HgN/A
3:00 AM63 °FMild.No wind76%29.94 "HgN/A
2:00 AM65 °FMild.1 mph74%29.95 "HgN/A
1:00 AM66 °FMild.1 mph71%29.95 "HgN/A
12:00 AM68 °FMild.1 mph69%29.96 "HgN/A
11:00 PM
Fri, Jul 29
69 °FMild.No wind63%29.96 "HgN/A
10:00 PM71 °FMild.2 mph52%29.96 "HgN/A
9:00 PM74 °FMild.1 mph48%29.96 "HgN/A
8:00 PM77 °FMild.3 mph42%29.96 "HgN/A
7:00 PM78 °FPleasantly warm.3 mph40%29.97 "HgN/A
6:00 PM79 °FWarm.3 mph41%29.99 "HgN/A
5:00 PM79 °FWarm.3 mph45%30.00 "HgN/A
4:00 PM78 °FWarm.2 mph43%30.01 "HgN/A
3:00 PM78 °FWarm.2 mph46%30.03 "HgN/A
2:00 PM77 °FWarm.3 mph47%30.04 "HgN/A
1:00 PM76 °FMild.3 mph50%30.05 "HgN/A
12:00 PM74 °FMild.3 mph52%30.06 "HgN/A
11:00 AM72 °FMild.6 mph51%30.06 "HgN/A
10:00 AM67 °FMild.5 mph64%30.07 "HgN/A
9:00 AM67 °FMild.3 mph66%30.08 "HgN/A
8:00 AM63 °FMild.1 mph77%30.09 "HgN/A
7:00 AM60 °FCool.1 mph84%30.08 "HgN/A
6:00 AM60 °FCool.1 mph85%30.07 "HgN/A
Weather by CustomWeather, © 2016

See weather overviewHow to use our weather pages